Location: Unspecified
(0.0000°N, 0.0000°E)
Time: 09:27:06
(UTC+00:00)

BlueWalker 3 - Pass Details

Date: 11 April 2024
Orbit: 485 x 495 km, 53.2° (Epoch: 19 April)

Event Time Altitude Azimuth Distance (km) Brightness Sun altitude
Rises 19:57:01 0° 218° (SW) 2,554 5.9 -28.7°
Reaches altitude 10° 19:59:12 10° 221° (SW) 1,673 4.9 -29.2°
Enters shadow 19:59:20 11° 221° (SW) 1,619 4.8 -29.2°
